GW5327 Weather Reports


Display with metric or nautical units.
time (UTC)temp
F
wind
direction
speed
MPH
gust
MPH
rain 1hr
in
rain 24hr
in
rain mn
in
humidity
%
barometer
mb
20260504081530 48 234 0.0 0.0 0.00 0.00 0.00 70 1015.5
20260504044554 50 234 0.0 0.0 0.00 0.00 0.00 69 1017.1
20260504043057 50 249 0.0 0.0 0.00 0.00 0.00 69 1017.0
20260504041549 50 249 0.0 0.0 0.00 0.00 0.00 70 1017.2
20260504040046 50 347 0.0 0.0 0.00 0.00 0.00 66 1016.8
20260504034548 50 249 0.0 0.0 0.00 0.00 0.00 67 1017.1
20260504033044 49 247 0.0 0.0 0.00 0.00 0.00 66 1017.0
20260504031544 49 247 0.0 0.0 0.00 0.00 0.00 65 1016.9
20260504030043 49 247 0.0 0.0 0.00 0.00 0.00 66 1016.9
20260504024545 49 247 0.0 0.0 0.00 0.00 0.00 64 1017.0
20260504023042 49 247 0.0 0.0 0.00 0.00 0.00 64 1016.9
20260504021541 48 247 0.0 0.0 0.00 0.00 0.00 64 1016.7
20260504020113 49 347 0.0 0.0 0.00 0.00 0.00 63 1016.7
20260504014557 49 248 0.0 0.0 0.00 0.00 0.00 62 1016.7
20260504013050 50 347 0.0 0.0 0.00 0.00 0.00 60 1016.7
20260504011540 50 316 0.0 0.0 0.00 0.00 0.00 61 1016.8
20260504010043 51 316 0.0 0.0 0.00 0.00 0.00 58 1016.7
20260504004558 53 315 0.0 0.0 0.00 0.00 0.00 54 1016.5
20260504003042 54 316 0.0 0.0 0.00 0.00 0.00 48 1016.6
20260504001558 56 316 0.0 0.0 0.00 0.00 0.00 44 1016.5
20260504000037 58 347 0.0 0.0 0.00 0.00 0.00 42 1016.5
20260503234535 59 347 0.0 0.0 0.00 0.00 0.00 38 1016.5
20260503233039 60 347 0.0 3.0 0.00 0.00 0.00 37 1016.7
20260503231534 61 161 0.0 2.0 0.00 0.00 0.00 36 1016.8
20260503230043 61 222 0.0 5.0 0.00 0.00 0.00 34 1016.9
20260503224530 62 216 1.0 8.0 0.00 0.00 0.00 35 1017.0
20260503223030 63 190 1.0 4.0 0.00 0.00 0.00 34 1017.0
20260503221529 63 177 0.0 2.0 0.00 0.00 0.00 34 1017.0
20260503220038 62 260 0.0 4.0 0.00 0.00 0.00 35 1017.1
20260503214527 62 198 0.0 8.0 0.00 0.00 0.00 34 1017.3
20260503213026 63 282 1.0 9.0 0.00 0.00 0.00 32 1017.2
20260503211524 63 225 2.0 8.0 0.00 0.00 0.00 31 1017.3
20260503210023 62 193 0.0 5.0 0.00 0.00 0.00 36 1017.4
20260503204521 62 104 0.0 8.0 0.00 0.00 0.00 32 1017.6
20260503203040 61 316 0.0 4.0 0.00 0.00 0.00 35 1018.0
20260503201517 62 237 0.0 4.0 0.00 0.00 0.00 36 1018.3
20260503200015 62 184 0.0 4.0 0.00 0.00 0.00 36 1018.4
20260503194531 61 257 1.0 6.0 0.00 0.00 0.00 34 1018.7
20260503193011 61 141 1.0 6.0 0.00 0.00 0.00 35 1019.0
20260503191509 60 92 1.0 7.0 0.00 0.00 0.00 37 1019.4
20260503190010 61 211 1.0 8.0 0.00 0.00 0.00 36 1019.5
20260503184507 61 287 0.0 7.0 0.00 0.00 0.00 38 1020.0
20260503183006 60 273 2.0 9.0 0.00 0.00 0.00 36 1020.1
20260503181505 59 254 0.0 6.0 0.00 0.00 0.00 37 1020.2
20260503180002 58 110 1.0 5.0 0.00 0.00 0.00 37 1020.5
20260503174502 57 302 2.0 9.0 0.00 0.00 0.00 41 1020.8
20260503173002 57 288 1.0 7.0 0.00 0.00 0.00 38 1020.9
20260503171605 58 146 1.0 5.0 0.00 0.00 0.00 43 1021.1